This demonstration page uses our WeatherBlox Daily Observations layout. Learn more.

Left ArrowRight Arrow

44.8408, -93.29828

Hourly Observations for August 22, 2017

Temp ( °F °C ) Dew Point ( °F °C ) Humidity (%) Winds ( mph kmh ) Pressure ( in mb ) Visibility ( mi km ) Precip ( " mm )
12:53 am 00:53 Clear 67 19.4 62 16.7 84 84 WNW 9 15 29.85 1011 10 16 0.00 0.00
1:53 am 01:53 Partly Cloudy 66 18.9 61 16.1 84 84 NW 12 19 29.87 1012 10 16 0.00 0.00
2:53 am 02:53 Clear 65 18.3 60 15.6 84 84 NW 7 11 29.88 1012 10 16 0.00 0.00
3:53 am 03:53 Clear 63 17.2 59 15 87 87 NW 10 17 29.90 1012 10 16 0.00 0.00
4:53 am 04:53 Clear 63 17.2 57 13.9 81 81 NW 12 19 29.92 1013 10 16 0.00 0.00
5:53 am 05:53 Clear 61 16.1 56 13.3 84 84 NNW 13 20 29.94 1014 10 16 0.00 0.00
6:53 am 06:53 Sunny 60 15.6 54 12.2 80 80 NNW 14 22 29.97 1015 10 16 0.00 0.00
7:53 am 07:53 Sunny 61 16.1 54 12.2 78 78 NW 13 20 30.00 1016 10 16 0.00 0.00
8:53 am 08:53 Sunny 63 17.2 54 12.2 73 73 NW 14 22 30.02 1017 10 16 0.00 0.00
9:53 am 09:53 Sunny 66 18.9 52 11.1 61 61 WNW 15 24 30.03 1017 10 16 0.00 0.00
10:53 am 10:53 Sunny 68 20 50 10 53 53 NNW 14 22 30.04 1017 10 16 0.00 0.00
11:53 am 11:53 Sunny 71 21.7 50 10 47 47 NW 14 22 30.04 1017 10 16 0.00 0.00
12:53 pm 12:53 Mostly Sunny 74 23.3 49 9.4 41 41 WNW 14 22 30.02 1017 10 16 0.00 0.00
1:53 pm 13:53 Mostly Sunny 75 23.9 48 8.9 39 39 WNW 22 35 30.03 1017 10 16 0.00 0.00
2:53 pm 14:53 Mostly Sunny 75 23.9 47 8.3 37 37 WNW 21 33 30.02 1017 10 16 0.00 0.00
3:53 pm 15:53 Partly Cloudy 74 23.3 49 9.4 41 41 NW 18 30 30.02 1017 10 16 0.00 0.00
4:53 pm 16:53 Mostly Cloudy 74 23.3 45 7.2 36 36 NW 20 31 30.02 1017 10 16 0.00 0.00
5:53 pm 17:53 Partly Cloudy 73 22.8 45 7.2 37 37 NW 17 28 30.03 1017 10 16 0.00 0.00
6:53 pm 18:53 Mostly Sunny 71 21.7 47 8.3 42 42 NW 12 19 30.03 1017 10 16 0.00 0.00
7:53 pm 19:53 Mostly Sunny 69 20.6 48 8.9 47 47 WNW 12 19 30.03 1017 10 16 0.00 0.00
8:53 pm 20:53 Clear 67 19.4 49 9.4 53 53 W 9 15 30.03 1017 10 16 0.00 0.00
9:53 pm 21:53 Clear 67 19.4 48 8.9 51 51 W 10 17 30.03 1017 10 16 0.00 0.00
10:53 pm 22:53 Clear 64 17.8 49 9.4 58 58 WNW 8 13 30.04 1017 10 16 0.00 0.00
11:53 pm 23:53 Clear 62 16.7 48 8.9 60 60 WNW 9 15 30.04 1017 10 16 0.00 0.00

Powered by AerisWeather